User: anonymous
Location: Caltech
(34.1382°N, 118.1253°W)
Time: 03:41:17
(UTC-07:00)
Language:

SO-50 - Orbit

View from above orbital plane
View from above orbital plane
View from above satellite
View from above satellite

Ground track
Ground track

The orbit data is extracted from the following two-line orbital elements,

1 27607U 02058C   14209.81563345  .00000441  00000-0  86775-4 0  4607
2 27607 064.5565 105.4431 0052743 358.9108 001.1869 14.73834805623614
Epoch (UTC): 28 July 2014 19:34:30
Eccentricity: 0.0052743
inclination: 64.5565°
perigee height: 612 km
apogee height: 686 km
right ascension of ascending node: 105.4431°
argument of perigee: 358.9108°
revolutions per day: 14.73834805
mean anomaly at epoch: 1.1869°
orbit number at epoch: 62361

The dashed part of the orbit path shows where the satellite is in the earth's shadow,  

DLR